When you browse on this site, cookies collect data to enhance your experience and personalize the content and advertising you see.
Visit our Privacy Policy to learn more. By continuing to use the site, you agree to this use of cookies and data.
  • In Österreich
  • Länderverzeichnis
  • Für 7 Tage
  • Wassertemperatur
  • Satellitenkarten
  • Wetterkarte
  • News
  • Widgets
  • user-avatar
    Anmelden

    Stündliche Wetter Znamenka

    Heute, 17 Juli, Mittwoch

    Zeit Temperatur Niederschläge Wind Luftdruck Luftfeuchtigkeit
    00:00 +13°C° 0.1 mm 3 m/S 744 mmHg 94%
    01:00 +12°C° 0.1 mm 3 m/S 744 mmHg 94%
    02:00 +12°C° 0.1 mm 3 m/S 744 mmHg 94%
    03:00 +11°C° 0 mm 3 m/S 744 mmHg 95%
    04:00 +11°C° 0 mm 3 m/S 744 mmHg 96%
    05:00 +11°C° 0 mm 3 m/S 744 mmHg 97%
    06:00 +11°C° 0 mm 3 m/S 744 mmHg 95%
    07:00 +12°C° 0 mm 3 m/S 743 mmHg 93%
    08:00 +13°C° 0 mm 4 m/S 743 mmHg 90%
    09:00 +14°C° 0.3 mm 3 m/S 743 mmHg 84%
    10:00 +17°C° 0.3 mm 3 m/S 743 mmHg 78%
    11:00 +18°C° 0.3 mm 3 m/S 744 mmHg 71%
    12:00 +18°C° 1 mm 3 m/S 743 mmHg 74%
    13:00 +18°C° 1 mm 4 m/S 743 mmHg 77%
    14:00 +18°C° 1 mm 4 m/S 743 mmHg 80%
    15:00 +18°C° 0.7 mm 4 m/S 743 mmHg 80%
    16:00 +18°C° 0.7 mm 4 m/S 743 mmHg 81%
    17:00 +17°C° 0.7 mm 3 m/S 743 mmHg 81%
    18:00 +16°C° 0.4 mm 3 m/S 743 mmHg 85%
    19:00 +15°C° 0.4 mm 2 m/S 743 mmHg 89%
    20:00 +14°C° 0.4 mm 2 m/S 743 mmHg 93%
    21:00 +14°C° 0.1 mm 2 m/S 743 mmHg 94%
    22:00 +13°C° 0.1 mm 2 m/S 743 mmHg 95%
    23:00 +13°C° 0.1 mm 2 m/S 743 mmHg 96%

    Morgen, 18 Juli, Donnerstag

    Zeit Temperatur Niederschläge Wind Luftdruck Luftfeuchtigkeit
    00:00 +12°C° 0 mm 2 m/S 743 mmHg 96%
    01:00 +11°C° 0 mm 3 m/S 743 mmHg 96%
    02:00 +11°C° 0 mm 3 m/S 743 mmHg 97%
    03:00 +11°C° 0 mm 3 m/S 743 mmHg 97%
    04:00 +11°C° 0 mm 3 m/S 743 mmHg 98%
    05:00 +11°C° 0 mm 4 m/S 743 mmHg 98%
    06:00 +12°C° 0 mm 4 m/S 744 mmHg 97%
    07:00 +12°C° 0 mm 4 m/S 744 mmHg 96%
    08:00 +13°C° 0 mm 4 m/S 744 mmHg 95%
    09:00 +13°C° 0 mm 4 m/S 744 mmHg 93%
    10:00 +14°C° 0 mm 4 m/S 745 mmHg 91%
    11:00 +15°C° 0 mm 4 m/S 745 mmHg 89%
    12:00 +17°C° 0.5 mm 4 m/S 745 mmHg 86%
    13:00 +19°C° 0.5 mm 4 m/S 745 mmHg 82%
    14:00 +20°C° 0.5 mm 5 m/S 745 mmHg 79%
    15:00 +20°C° 0.7 mm 4 m/S 745 mmHg 81%
    16:00 +20°C° 0.7 mm 4 m/S 745 mmHg 82%
    17:00 +20°C° 0.7 mm 4 m/S 745 mmHg 84%
    18:00 +19°C° 0.2 mm 4 m/S 745 mmHg 87%
    19:00 +18°C° 0.2 mm 3 m/S 745 mmHg 89%
    20:00 +17°C° 0.2 mm 3 m/S 746 mmHg 92%
    21:00 +16°C° 0 mm 3 m/S 746 mmHg 93%
    22:00 +14°C° 0 mm 3 m/S 746 mmHg 94%
    23:00 +14°C° 0 mm 3 m/S 747 mmHg 96%

    übermorgen, 19 Juli, Freitag

    Zeit Temperatur Niederschläge Wind Luftdruck Luftfeuchtigkeit
    00:00 +13°C° 0 mm 3 m/S 747 mmHg 96%
    01:00 +13°C° 0 mm 3 m/S 747 mmHg 96%
    02:00 +12°C° 0 mm 3 m/S 747 mmHg 96%
    03:00 +12°C° 0 mm 3 m/S 747 mmHg 96%
    04:00 +13°C° 0 mm 2 m/S 748 mmHg 96%
    05:00 +13°C° 0 mm 2 m/S 748 mmHg 96%
    06:00 +13°C° 0 mm 3 m/S 748 mmHg 91%
    07:00 +16°C° 0 mm 3 m/S 748 mmHg 85%
    08:00 +18°C° 0 mm 3 m/S 749 mmHg 80%
    09:00 +19°C° 0 mm 3 m/S 749 mmHg 71%
    10:00 +21°C° 0 mm 3 m/S 749 mmHg 63%
    11:00 +24°C° 0 mm 3 m/S 749 mmHg 55%
    12:00 +24°C° 0.2 mm 3 m/S 749 mmHg 54%
    13:00 +24°C° 0.2 mm 3 m/S 749 mmHg 54%
    14:00 +25°C° 0.2 mm 3 m/S 748 mmHg 54%
    15:00 +25°C° 0.1 mm 3 m/S 748 mmHg 57%
    16:00 +24°C° 0.1 mm 3 m/S 748 mmHg 59%
    17:00 +24°C° 0.1 mm 3 m/S 748 mmHg 61%
    18:00 +21°C° 0.1 mm 2 m/S 749 mmHg 69%
    19:00 +20°C° 0.1 mm 2 m/S 749 mmHg 77%
    20:00 +18°C° 0.1 mm 2 m/S 749 mmHg 85%
    21:00 +17°C° 0 mm 2 m/S 749 mmHg 87%
    22:00 +16°C° 0 mm 1 m/S 749 mmHg 90%
    23:00 +15°C° 0 mm 1 m/S 750 mmHg 92%

    20 Juli, Samstag

    Zeit Temperatur Niederschläge Wind Luftdruck Luftfeuchtigkeit
    00:00 +15°C° 0 mm 1 m/S 750 mmHg 93%
    01:00 +15°C° 0 mm 1 m/S 750 mmHg 93%
    02:00 +14°C° 0 mm 1 m/S 750 mmHg 94%
    03:00 +14°C° 0 mm 1 m/S 750 mmHg 94%
    04:00 +14°C° 0 mm 1 m/S 750 mmHg 94%
    05:00 +14°C° 0 mm 1 m/S 750 mmHg 94%
    06:00 +16°C° 0 mm 1 m/S 751 mmHg 86%
    07:00 +19°C° 0 mm 1 m/S 751 mmHg 79%
    08:00 +21°C° 0 mm 1 m/S 751 mmHg 71%
    09:00 +22°C° 0 mm 1 m/S 751 mmHg 65%
    10:00 +24°C° 0 mm 2 m/S 751 mmHg 59%
    11:00 +25°C° 0 mm 2 m/S 751 mmHg 53%
    12:00 +26°C° 0 mm 2 m/S 751 mmHg 51%
    13:00 +26°C° 0 mm 2 m/S 751 mmHg 49%
    14:00 +26°C° 0 mm 2 m/S 751 mmHg 47%
    15:00 +26°C° 0 mm 2 m/S 751 mmHg 49%
    16:00 +26°C° 0 mm 2 m/S 751 mmHg 51%
    17:00 +26°C° 0 mm 2 m/S 751 mmHg 53%
    18:00 +24°C° 0 mm 1 m/S 751 mmHg 61%
    19:00 +22°C° 0 mm 1 m/S 752 mmHg 69%
    20:00 +20°C° 0 mm 1 m/S 752 mmHg 77%
    21:00 +19°C° 0 mm 1 m/S 752 mmHg 80%
    22:00 +17°C° 0 mm 0 m/S 752 mmHg 83%
    23:00 +16°C° 0 mm 0 m/S 753 mmHg 86%

    21 Juli, Sonntag

    Zeit Temperatur Niederschläge Wind Luftdruck Luftfeuchtigkeit
    00:00 +15°C° 0 mm 0 m/S 753 mmHg 87%
    01:00 +15°C° 0 mm 0 m/S 753 mmHg 88%
    02:00 +15°C° 0 mm 0 m/S 753 mmHg 89%
    03:00 +15°C° 0 mm 0 m/S 753 mmHg 89%
    04:00 +15°C° 0 mm 0 m/S 753 mmHg 88%
    05:00 +15°C° 0 mm 0 m/S 753 mmHg 88%
    06:00 +19°C° 0 mm 1 m/S 753 mmHg 81%
    07:00 +21°C° 0 mm 1 m/S 753 mmHg 74%
    08:00 +23°C° 0 mm 1 m/S 754 mmHg 66%
    09:00 +24°C° 0 mm 1 m/S 754 mmHg 59%
    10:00 +26°C° 0 mm 1 m/S 754 mmHg 53%
    11:00 +27°C° 0 mm 1 m/S 754 mmHg 46%
    12:00 +27°C° 0 mm 1 m/S 754 mmHg 44%
    13:00 +28°C° 0 mm 2 m/S 754 mmHg 43%
    14:00 +28°C° 0 mm 2 m/S 753 mmHg 42%
    15:00 +28°C° 0 mm 2 m/S 753 mmHg 46%
    16:00 +27°C° 0 mm 2 m/S 753 mmHg 49%
    17:00 +27°C° 0 mm 2 m/S 753 mmHg 53%
    18:00 +25°C° 0 mm 2 m/S 753 mmHg 60%
    19:00 +23°C° 0 mm 1 m/S 753 mmHg 68%
    20:00 +21°C° 0 mm 1 m/S 753 mmHg 76%
    21:00 +20°C° 0 mm 1 m/S 753 mmHg 77%
    22:00 +19°C° 0 mm 1 m/S 754 mmHg 78%
    23:00 +19°C° 0 mm 1 m/S 754 mmHg 78%

    22 Juli, Montag

    Zeit Temperatur Niederschläge Wind Luftdruck Luftfeuchtigkeit
    00:00 +18°C° 0 mm 1 m/S 754 mmHg 78%
    01:00 +18°C° 0 mm 1 m/S 754 mmHg 78%
    02:00 +18°C° 0 mm 1 m/S 754 mmHg 78%
    03:00 +18°C° 0 mm 1 m/S 753 mmHg 80%
    04:00 +18°C° 0 mm 1 m/S 753 mmHg 82%
    05:00 +16°C° 0 mm 1 m/S 753 mmHg 83%
    06:00 +19°C° 0 mm 1 m/S 753 mmHg 78%
    07:00 +21°C° 0 mm 1 m/S 753 mmHg 73%
    08:00 +23°C° 0 mm 1 m/S 753 mmHg 67%
    09:00 +24°C° 0 mm 1 m/S 753 mmHg 64%
    10:00 +25°C° 0 mm 2 m/S 753 mmHg 61%
    11:00 +26°C° 0 mm 2 m/S 753 mmHg 58%
    12:00 +27°C° 0 mm 2 m/S 752 mmHg 57%
    13:00 +27°C° 0 mm 2 m/S 752 mmHg 55%
    14:00 +28°C° 0 mm 2 m/S 752 mmHg 54%
    15:00 +28°C° 0.1 mm 3 m/S 751 mmHg 55%
    16:00 +28°C° 0.1 mm 3 m/S 751 mmHg 55%
    17:00 +29°C° 0.1 mm 3 m/S 751 mmHg 56%
    18:00 +26°C° 0.7 mm 2 m/S 750 mmHg 67%
    19:00 +24°C° 0.7 mm 2 m/S 750 mmHg 77%
    20:00 +22°C° 0.7 mm 1 m/S 750 mmHg 88%
    21:00 +22°C° 0.1 mm 1 m/S 750 mmHg 90%
    22:00 +21°C° 0.1 mm 1 m/S 750 mmHg 93%
    23:00 +20°C° 0.1 mm 1 m/S 750 mmHg 96%
    Mehr zeigen